FW4117 Weather Reports


Display with metric or nautical units.
time (UTC)temp
F
wind
direction
speed
MPH
gust
MPH
rain 1hr
in
rain 24hr
in
rain mn
in
humidity
%
barometer
mb
20260507060503 57 3 0.0 3.0 0.00 0.03 0.00 79 1016.8
20260507060003 57 23 0.0 3.0 0.00 0.03 0.00 79 1016.7
20260507055503 57 52 0.0 1.0 0.00 0.03 0.00 79 1016.7
20260507055003 57 73 0.0 1.0 0.00 0.03 0.00 79 1016.8
20260507054503 57 83 0.0 3.0 0.00 0.03 0.00 79 1016.8
20260507054003 57 75 0.0 3.0 0.00 0.03 0.00 78 1016.7
20260507053714 57 63 0.0 2.0 0.00 0.03 0.00 78 1016.6
20260507053003 57 41 0.0 2.0 0.00 0.03 0.00 78 1016.6
20260507052503 57 65 0.0 2.0 0.00 0.03 0.00 78 1016.6
20260507052003 58 63 0.0 3.0 0.00 0.03 0.00 78 1016.5
20260507051503 58 54 1.0 3.0 0.00 0.03 0.00 78 1016.5
20260507051003 58 45 1.0 3.0 0.00 0.03 0.00 78 1016.5
20260507050503 58 37 1.0 6.0 0.00 0.03 0.00 77 1016.5
20260507050003 58 38 1.0 6.0 0.00 0.03 0.00 77 1016.5
20260507045503 58 36 1.0 6.0 0.00 0.03 0.03 77 1016.6
20260507045003 58 35 1.0 3.0 0.00 0.03 0.03 77 1016.6
20260507044503 58 47 1.0 3.0 0.00 0.03 0.03 77 1016.6
20260507044003 59 53 1.0 3.0 0.00 0.03 0.03 76 1016.6
20260507043713 59 50 1.0 4.0 0.00 0.03 0.03 76 1016.7
20260507043212 59 43 1.0 4.0 0.00 0.03 0.03 76 1016.6
20260507042713 59 55 1.0 4.0 0.00 0.03 0.03 76 1016.7
20260507042003 59 67 1.0 6.0 0.00 0.03 0.03 76 1016.8
20260507041503 59 52 1.0 6.0 0.00 0.03 0.03 76 1016.8
20260507041003 60 42 1.0 5.0 0.00 0.03 0.03 76 1016.9
20260507040503 60 50 1.0 5.0 0.00 0.03 0.03 75 1016.9
20260507040003 60 54 2.0 5.0 0.00 0.03 0.03 75 1016.9
20260507035503 60 54 1.0 5.0 0.00 0.03 0.03 75 1017.0
20260507035003 60 55 1.0 5.0 0.00 0.03 0.03 75 1016.9
20260507034503 60 55 1.0 6.0 0.00 0.03 0.03 74 1016.9
20260507034003 60 24 1.0 6.0 0.00 0.03 0.03 74 1016.9
20260507033503 60 18 1.0 5.0 0.00 0.03 0.03 74 1017.0
20260507033003 60 38 1.0 8.0 0.00 0.03 0.03 73 1017.0
20260507032503 60 20 1.0 8.0 0.00 0.03 0.03 73 1016.9
20260507032003 60 345 1.0 5.0 0.00 0.03 0.03 74 1016.9
20260507031503 60 352 1.0 5.0 0.00 0.03 0.03 73 1016.8
20260507031003 60 350 1.0 10.0 0.00 0.03 0.03 73 1016.9
20260507030503 60 342 1.0 10.0 0.00 0.03 0.03 74 1017.0
20260507030003 60 343 1.0 9.0 0.00 0.03 0.03 74 1016.8
20260507025503 61 339 2.0 9.0 0.00 0.03 0.03 74 1016.6
20260507025213 61 339 2.0 9.0 0.00 0.03 0.03 74 1016.6
20260507024503 61 343 2.0 9.0 0.00 0.03 0.03 74 1016.4
20260507024003 61 339 2.0 10.0 0.00 0.03 0.03 74 1016.3
20260507023503 61 334 2.0 10.0 0.00 0.03 0.03 74 1016.2
20260507023003 61 332 2.0 8.0 0.00 0.03 0.03 74 1016.2
20260507022503 62 335 2.0 8.0 0.00 0.03 0.03 74 1016.0
20260507022003 62 333 2.0 8.0 0.00 0.03 0.03 74 1015.9
20260507021503 62 329 2.0 8.0 0.00 0.03 0.03 74 1015.8
20260507021003 62 330 2.0 8.0 0.00 0.03 0.03 74 1015.6
20260507020503 62 329 2.0 9.0 0.00 0.03 0.03 74 1015.5
20260507020003 62 332 2.0 9.0 0.00 0.03 0.03 75 1015.5
20260507015503 63 335 2.0 8.0 0.00 0.03 0.03 75 1015.4
20260507015003 63 335 2.0 8.0 0.00 0.03 0.03 75 1015.2
20260507014712 63 331 1.0 6.0 0.00 0.03 0.03 75 1015.2
20260507014003 63 332 2.0 9.0 0.00 0.03 0.03 74 1015.0
20260507013503 63 345 2.0 9.0 0.00 0.03 0.03 74 1014.8
20260507013213 63 354 1.0 8.0 0.00 0.03 0.03 74 1014.8
20260507012503 63 360 1.0 6.0 0.00 0.03 0.03 74 1014.7
20260507012003 63 342 1.0 4.0 0.00 0.03 0.03 74 1014.6
20260507011503 63 4 1.0 4.0 0.00 0.03 0.03 73 1014.4
20260507010503 64 27 1.0 6.0 0.00 0.03 0.03 73 1014.4
20260507010003 64 10 1.0 6.0 0.00 0.03 0.03 73 1014.3
20260507005503 64 14 1.0 5.0 0.00 0.03 0.03 73 1014.3
20260507005003 64 18 1.0 5.0 0.00 0.03 0.03 73 1014.2
20260507004503 64 3 1.0 5.0 0.00 0.03 0.03 72 1014.1
20260507004003 64 333 1.0 6.0 0.00 0.03 0.03 72 1014.1
20260507003503 64 5 1.0 6.0 0.00 0.03 0.03 72 1014.1
20260507003003 64 22 1.0 6.0 0.00 0.03 0.03 72 1014.1
20260507002503 64 20 1.0 4.0 0.00 0.03 0.03 71 1014.1
20260507002213 65 8 1.0 5.0 0.00 0.03 0.03 71 1014.0
20260507001503 65 329 2.0 11.0 0.00 0.03 0.03 70 1014.0
20260507001003 65 332 2.0 11.0 0.00 0.03 0.03 70 1013.9
20260507000503 66 13 1.0 7.0 0.00 0.03 0.03 70 1013.8
20260507000003 66 22 1.0 7.0 0.00 0.03 0.03 70 1013.7
20260506235713 66 18 1.0 7.0 0.00 0.03 0.03 70 1013.5
20260506235003 66 18 2.0 6.0 0.00 0.03 0.03 69 1013.4
20260506234503 66 350 1.0 5.0 0.00 0.03 0.03 69 1013.5
20260506234212 66 354 1.0 6.0 0.00 0.03 0.03 69 1013.5
20260506233503 67 11 1.0 7.0 0.00 0.03 0.03 69 1013.5
20260506233212 67 31 1.0 8.0 0.00 0.03 0.03 69 1013.3
20260506232503 67 8 1.0 8.0 0.00 0.03 0.03 68 1013.2
20260506232003 67 347 1.0 9.0 0.00 0.03 0.03 69 1013.2
20260506231503 67 2 2.0 9.0 0.00 0.03 0.03 68 1013.1
20260506231003 67 351 1.0 6.0 0.00 0.03 0.03 68 1013.1
20260506230503 67 358 1.0 6.0 0.00 0.03 0.03 68 1013.1
20260506230003 68 40 1.0 4.0 0.00 0.03 0.03 67 1013.2
20260506225713 68 34 1.0 4.0 0.00 0.03 0.03 66 1013.2
20260506225003 69 28 1.0 7.0 0.00 0.03 0.03 67 1013.0
20260506224503 68 23 1.0 7.0 0.00 0.03 0.03 67 1013.0
20260506224003 68 1 1.0 5.0 0.00 0.03 0.03 67 1012.9
20260506223503 68 352 1.0 8.0 0.00 0.03 0.03 66 1012.8
20260506223003 68 356 1.0 8.0 0.00 0.03 0.03 67 1013.0
20260506222503 68 353 1.0 8.0 0.00 0.03 0.03 67 1012.8
20260506222003 68 9 1.0 8.0 0.00 0.03 0.03 67 1012.8
20260506221713 68 2 1.0 8.0 0.00 0.03 0.03 67 1012.8
20260506221003 68 355 1.0 9.0 0.00 0.03 0.03 67 1012.8
20260506220503 68 11 1.0 9.0 0.00 0.03 0.03 66 1012.9
20260506220003 68 24 1.0 4.0 0.00 0.03 0.03 66 1013.0
20260506215503 68 34 1.0 5.0 0.00 0.03 0.03 66 1013.1
20260506215003 68 33 2.0 6.0 0.00 0.03 0.03 66 1012.9
20260506214503 68 13 1.0 7.0 0.00 0.03 0.03 67 1012.9
20260506214003 68 339 1.0 7.0 0.00 0.03 0.03 67 1013.0
20260506213503 68 26 1.0 6.0 0.00 0.03 0.03 68 1012.8
20260506213003 67 45 2.0 6.0 0.00 0.03 0.03 69 1012.9
20260506212712 67 46 1.0 5.0 0.00 0.03 0.03 70 1013.0
20260506212003 66 63 1.0 7.0 0.00 0.03 0.03 70 1013.1
20260506211503 65 30 1.0 7.0 0.00 0.03 0.03 71 1013.2
20260506211003 64 335 0.0 3.0 0.00 0.03 0.03 71 1013.3
20260506210503 64 22 0.0 3.0 0.00 0.03 0.03 70 1013.5
20260506210003 64 46 1.0 4.0 0.00 0.03 0.03 70 1013.4
20260506205503 65 45 1.0 4.0 0.00 0.03 0.03 70 1013.2
20260506205003 65 53 1.0 4.0 0.00 0.03 0.03 70 1013.1
20260506204503 65 51 1.0 4.0 0.00 0.03 0.03 70 1013.2
20260506204213 65 46 1.0 4.0 0.00 0.03 0.03 70 1013.3
20260506203503 64 2 1.0 4.0 0.00 0.03 0.03 70 1013.3
20260506203003 64 10 1.0 4.0 0.00 0.03 0.03 70 1013.5
20260506202503 65 42 1.0 4.0 0.00 0.03 0.03 69 1013.6
20260506202003 64 50 1.0 4.0 0.00 0.03 0.03 70 1013.3
20260506201503 64 41 1.0 4.0 0.00 0.03 0.03 70 1013.9
20260506201213 64 47 1.0 5.0 0.00 0.03 0.03 69 1013.9
20260506200503 64 45 1.0 5.0 0.00 0.03 0.03 69 1013.9
20260506200213 64 28 1.0 4.0 0.00 0.03 0.03 68 1013.9
20260506195503 64 29 1.0 6.0 0.00 0.03 0.03 70 1014.0
20260506195003 64 47 2.0 7.0 0.00 0.03 0.03 70 1014.2
20260506194503 64 61 2.0 7.0 0.00 0.03 0.03 70 1014.2
20260506194003 63 65 1.0 4.0 0.00 0.03 0.03 70 1014.3
20260506193503 63 46 1.0 4.0 0.00 0.03 0.03 70 1014.4
20260506193003 63 41 1.0 4.0 0.00 0.03 0.03 71 1014.3
20260506192503 62 51 1.0 4.0 0.00 0.03 0.03 72 1014.4
20260506192003 62 46 1.0 4.0 0.00 0.03 0.03 72 1014.5
20260506191503 62 351 1.0 4.0 0.00 0.03 0.03 72 1014.5
20260506191213 62 348 1.0 6.0 0.00 0.03 0.03 71 1014.7
20260506190503 62 32 1.0 6.0 0.00 0.03 0.03 71 1014.6
20260506190212 62 8 1.0 6.0 0.00 0.03 0.03 71 1014.6
20260506185503 62 326 1.0 6.0 0.00 0.03 0.03 71 1014.4
20260506185213 62 331 2.0 9.0 0.00 0.03 0.03 71 1014.4
20260506184714 63 334 2.0 9.0 0.00 0.03 0.03 70 1014.3
20260506184003 63 350 2.0 7.0 0.00 0.03 0.03 72 1013.8
20260506183503 62 345 2.0 8.0 0.00 0.03 0.03 73 1013.6
20260506183003 61 349 2.0 8.0 0.00 0.03 0.03 73 1013.7
20260506182503 61 346 2.0 10.0 0.00 0.03 0.03 73 1013.7
20260506182003 60 333 2.0 10.0 0.00 0.03 0.03 76 1013.6
20260506181503 59 337 2.0 8.0 0.00 0.03 0.03 75 1013.6
20260506181003 60 344 2.0 8.0 0.00 0.03 0.03 75 1013.9
20260506180503 59 343 2.0 8.0 0.00 0.03 0.03 76 1013.9
20260506180212 60 336 2.0 7.0 0.00 0.03 0.03 76 1013.9
20260506175503 59 333 1.0 6.0 0.00 0.03 0.03 78 1014.1
20260506175003 58 340 2.0 8.0 0.00 0.03 0.03 78 1014.1
20260506174503 58 343 2.0 8.0 0.00 0.03 0.03 78 1014.1
20260506174003 58 334 2.0 6.0 0.00 0.03 0.03 79 1013.9
20260506173713 57 337 2.0 6.0 0.00 0.03 0.03 80 1013.9
20260506173003 56 344 2.0 7.0 0.00 0.03 0.03 81 1014.2
20260506172503 56 339 2.0 9.0 0.00 0.03 0.03 81 1014.1
20260506172003 56 330 3.0 9.0 0.00 0.03 0.03 82 1014.1
20260506171713 56 328 3.0 9.0 0.00 0.03 0.03 82 1013.9
20260506171003 56 348 1.0 7.0 0.00 0.03 0.03 82 1014.1
20260506170503 55 358 1.0 7.0 0.00 0.03 0.03 83 1014.3
20260506170003 55 359 1.0 7.0 0.00 0.03 0.03 83 1014.3
20260506165503 55 350 1.0 7.0 0.00 0.03 0.03 83 1014.4
20260506165003 55 336 1.0 7.0 0.00 0.03 0.03 84 1014.3
20260506164503 55 350 1.0 9.0 0.00 0.03 0.03 84 1014.7
20260506164003 55 343 1.0 9.0 0.00 0.03 0.03 84 1014.6
20260506163503 55 347 1.0 6.0 0.00 0.03 0.03 84 1014.8
20260506163003 55 344 1.0 6.0 0.00 0.03 0.03 85 1014.6
20260506162503 55 326 1.0 8.0 0.00 0.03 0.03 85 1014.3
20260506162003 54 325 2.0 9.0 0.00 0.03 0.03 86 1014.2
20260506161503 54 324 2.0 9.0 0.00 0.03 0.03 86 1013.8
20260506161003 54 341 2.0 10.0 0.01 0.03 0.03 86 1013.7
20260506160503 54 347 2.0 10.0 0.03 0.03 0.03 86 1013.7
20260506160003 55 342 2.0 9.0 0.03 0.03 0.03 87 1013.9
20260506155503 54 338 2.0 7.0 0.03 0.03 0.03 87 1014.1
20260506155003 54 334 1.0 7.0 0.03 0.03 0.03 88 1014.5
20260506154503 54 339 1.0 5.0 0.03 0.03 0.03 87 1014.7
20260506154003 54 352 1.0 5.0 0.03 0.03 0.03 88 1014.6
20260506153712 54 2 1.0 7.0 0.03 0.03 0.03 88 1014.5
20260506153003 54 348 2.0 8.0 0.03 0.03 0.03 88 1013.6
20260506152503 54 337 2.0 8.0 0.03 0.03 0.03 87 1014.0
20260506152003 53 337 1.0 8.0 0.03 0.03 0.03 87 1014.4
20260506151503 53 336 1.0 5.0 0.03 0.03 0.03 86 1015.5
20260506151003 54 339 0.0 6.0 0.02 0.02 0.02 86 1016.2
20260506150503 54 340 0.0 6.0 0.00 0.00 0.00 85 1016.1
20260506150003 54 350 0.0 2.0 0.00 0.00 0.00 86 1015.9
20260506145503 53 7 0.0 4.0 0.00 0.00 0.00 85 1015.9
20260506145003 53 349 1.0 4.0 0.00 0.00 0.00 85 1015.7
20260506144503 53 337 1.0 7.0 0.00 0.00 0.00 85 1015.3
20260506144003 53 334 1.0 7.0 0.00 0.00 0.00 85 1014.7
20260506143503 54 343 1.0 6.0 0.00 0.00 0.00 85 1014.6
20260506143003 54 343 1.0 7.0 0.00 0.00 0.00 84 1013.9
20260506142503 54 333 1.0 7.0 0.00 0.00 0.00 84 1013.9
20260506142003 54 339 1.0 5.0 0.00 0.00 0.00 83 1013.9
20260506141503 54 333 1.0 5.0 0.00 0.00 0.00 83 1014.8
20260506141003 54 326 1.0 7.0 0.00 0.00 0.00 83 1015.1
20260506140503 54 345 1.0 8.0 0.00 0.00 0.00 83 1014.7
20260506140003 54 343 1.0 8.0 0.00 0.00 0.00 83 1014.6
20260506135503 54 318 1.0 5.0 0.00 0.00 0.00 84 1014.6
20260506135003 54 332 1.0 7.0 0.00 0.00 0.00 84 1014.5
20260506134503 53 340 2.0 6.0 0.00 0.00 0.00 84 1014.4
20260506134003 53 340 2.0 9.0 0.00 0.00 0.00 84 1013.8
20260506133503 53 345 2.0 9.0 0.00 0.00 0.00 84 1013.8
20260506133003 53 343 2.0 9.0 0.00 0.00 0.00 84 1013.5
20260506132503 53 340 1.0 9.0 0.00 0.00 0.00 84 1013.4
20260506132003 53 340 1.0 7.0 0.00 0.00 0.00 85 1013.7
20260506131503 53 341 2.0 7.0 0.00 0.00 0.00 84 1013.7
20260506131212 53 340 2.0 7.0 0.00 0.00 0.00 84 1013.6
20260506130713 53 339 2.0 10.0 0.00 0.00 0.00 85 1013.5
20260506130003 53 335 2.0 14.0 0.00 0.00 0.00 84 1013.2
20260506125503 53 332 3.0 14.0 0.00 0.00 0.00 84 1013.4
20260506125212 53 338 2.0 12.0 0.00 0.00 0.00 84 1013.3
20260506124503 53 340 1.0 7.0 0.00 0.00 0.00 84 1013.0
20260506124003 53 336 1.0 9.0 0.00 0.00 0.00 84 1013.0
20260506123503 53 335 1.0 9.0 0.00 0.00 0.00 83 1013.1
20260506123003 53 337 1.0 7.0 0.00 0.00 0.00 83 1013.2
20260506122713 53 340 1.0 7.0 0.00 0.00 0.00 83 1013.0
20260506122003 53 346 2.0 8.0 0.00 0.00 0.00 83 1013.1
20260506121503 53 349 2.0 8.0 0.00 0.00 0.00 82 1013.0
20260506121212 53 354 2.0 8.0 0.00 0.00 0.00 82 1012.9
20260506120503 53 345 2.0 9.0 0.00 0.00 0.00 82 1013.0
20260506120003 54 340 2.0 9.0 0.00 0.00 0.00 81 1012.9
20260506115503 54 339 2.0 10.0 0.00 0.00 0.00 81 1012.8
20260506115003 54 339 3.0 12.0 0.00 0.00 0.00 80 1012.9
20260506114503 54 340 2.0 12.0 0.00 0.00 0.00 79 1012.8
20260506114003 54 343 2.0 9.0 0.00 0.00 0.00 79 1012.7
20260506113503 54 343 2.0 10.0 0.00 0.00 0.00 79 1012.4
20260506113003 55 343 2.0 14.0 0.00 0.00 0.00 78 1012.5
20260506112503 55 347 2.0 14.0 0.00 0.00 0.00 78 1012.3
20260506112003 55 340 1.0 9.0 0.00 0.00 0.00 77 1012.2
20260506111503 55 339 1.0 6.0 0.00 0.00 0.00 77 1012.0
20260506111214 55 340 2.0 8.0 0.00 0.00 0.00 77 1011.9
20260506110712 55 344 2.0 11.0 0.00 0.00 0.00 76 1011.9
20260506110003 56 345 2.0 9.0 0.00 0.00 0.00 77 1011.9
20260506105503 56 357 1.0 9.0 0.00 0.00 0.00 77 1011.9
20260506105213 56 355 2.0 7.0 0.00 0.00 0.00 77 1011.7
20260506104503 56 341 1.0 7.0 0.00 0.00 0.00 77 1011.7
20260506104003 56 341 2.0 8.0 0.00 0.00 0.00 77 1011.6
20260506103503 56 340 2.0 10.0 0.00 0.00 0.00 76 1011.6
20260506103003 56 340 2.0 10.0 0.00 0.00 0.00 76 1011.5
20260506102503 56 347 2.0 10.0 0.00 0.00 0.00 76 1011.4
20260506102003 56 344 2.0 9.0 0.00 0.00 0.00 77 1011.3
20260506101503 57 348 2.0 7.0 0.00 0.00 0.00 77 1011.2
20260506101003 57 348 2.0 7.0 0.00 0.00 0.00 77 1011.0
20260506100503 57 330 1.0 6.0 0.00 0.00 0.00 77 1010.9
20260506100003 57 321 1.0 6.0 0.00 0.00 0.00 77 1011.0
20260506095503 57 329 1.0 7.0 0.00 0.00 0.00 76 1010.9
20260506095003 57 331 2.0 7.0 0.00 0.00 0.00 76 1010.8
20260506094503 57 334 2.0 8.0 0.00 0.00 0.00 77 1010.7
20260506094213 57 337 2.0 8.0 0.00 0.00 0.00 77 1010.6
20260506093503 57 334 1.0 8.0 0.00 0.00 0.00 77 1010.6
20260506093003 57 323 1.0 5.0 0.00 0.00 0.00 77 1010.7
20260506092503 57 323 1.0 7.0 0.00 0.00 0.00 77 1010.4
20260506092003 57 331 2.0 8.0 0.00 0.00 0.00 77 1010.5
20260506091503 57 327 1.0 8.0 0.00 0.00 0.00 77 1010.4
20260506091003 57 330 1.0 6.0 0.00 0.00 0.00 77 1010.3
20260506090503 58 331 1.0 7.0 0.00 0.00 0.00 77 1010.5
20260506090003 58 333 1.0 7.0 0.00 0.00 0.00 77 1010.5
20260506085503 58 329 1.0 6.0 0.00 0.00 0.00 77 1010.3
20260506085003 58 330 1.0 6.0 0.00 0.00 0.00 77 1010.1
20260506084503 58 340 1.0 5.0 0.00 0.00 0.00 77 1010.2
20260506084213 58 354 1.0 4.0 0.00 0.00 0.00 78 1010.0
20260506083503 58 339 1.0 7.0 0.00 0.00 0.00 77 1010.0
20260506083003 58 347 1.0 7.0 0.00 0.00 0.00 78 1009.9
20260506082503 58 355 0.0 4.0 0.00 0.00 0.00 78 1009.9
20260506082213 58 334 1.0 6.0 0.00 0.00 0.00 78 1009.9
20260506081503 58 337 1.0 6.0 0.00 0.00 0.00 78 1010.0
20260506081003 58 344 1.0 9.0 0.00 0.00 0.00 78 1010.0
20260506080503 59 342 2.0 9.0 0.00 0.00 0.00 78 1010.0
20260506073503 59 339 1.0 8.0 0.00 0.00 0.00 78 1009.9
20260506073003 59 347 1.0 5.0 0.00 0.00 0.00 78 1009.6
20260506072503 59 349 1.0 5.0 0.00 0.00 0.00 78 1009.3
20260506072003 59 346 1.0 4.0 0.00 0.00 0.00 78 1009.3
20260506071503 59 341 0.0 4.0 0.00 0.00 0.00 79 1009.2
20260506071003 59 337 1.0 6.0 0.00 0.00 0.00 79 1009.2
20260506070503 59 338 1.0 6.0 0.00 0.00 0.00 78 1009.3
20260506062003 60 341 2.0 8.0 0.00 0.00 0.00 79 1009.8
20260506061503 60 339 2.0 8.0 0.00 0.00 0.00 80 1009.5
20260506061003 60 343 2.0 8.0 0.00 0.00 0.00 80 1009.5